#timestamp,LO_Frequency,Hit,StdDev 
1611698415.5,286047002.4,N
1611698435.4,286047000.7,N
1611698455.2,286047001.9,N
1611698475.0,286047002.3,N
1611698476.0,286047002.3,N
1611698495.8,286047002.2,N
1611698515.6,286046999.9,N
1611698535.5,286047001.1,N
1611698555.3,286047000.8,N
1611698575.1,286046998.8,N
1611698595.9,286046999.0,N
1611698615.7,286046997.2,N
1611698635.6,286046997.7,N
1611698655.4,286046999.1,N
1611698675.2,286046999.2,N
1611698695.1,286046997.0,N
1611698696.0,286046997.0,N
1611698715.8,286046999.5,N
1611698735.7,286046999.0,N
1611698755.5,286047001.1,N
1611698775.3,286047000.8,N
1611698795.2,286046998.6,N
1611698815.0,286046999.9,N
1611698815.9,286046999.9,N
1611698835.8,286047000.0,N
1611698855.6,286046998.1,N
1611698875.4,286046999.7,N
1611698895.3,286047003.4,N
1611698915.1,286047001.8,N
1611698935.8,286047001.5,N
1611698955.7,286047000.7,N
1611698975.5,286047000.4,N
1611698995.4,286047000.0,N
1611699015.2,286047000.3,N
1611699035.0,286046999.5,N
1611699035.9,286046999.5,N
1611699055.8,286046998.7,N
1611699075.6,286046998.3,N
1611699095.5,286046999.4,N
1611699115.3,286046999.1,N
1611699135.1,286046999.6,N
1611699155.9,286046995.3,Y
1611699175.7,286046997.6,P
1611699195.5,286046999.2,N
1611699215.4,286046999.2,N
1611699235.2,286046996.7,Y
1611699255.1,286046998.4,P
1611699256.0,286046998.4,P
1611699275.8,286046999.9,N
1611699295.6,286047000.0,N
1611699315.5,286047002.8,Y
1611699335.3,286047001.7,P
1611699355.2,286047003.5,N
1611699375.9,286047003.1,N
1611699395.7,286047005.6,Y
1611699415.6,286047000.2,P
1611699435.4,286047002.8,P
1611699455.3,286047002.4,N
1611699475.1,286047000.0,N
1611699476.0,286047000.0,N
1611699495.8,286046998.6,N
1611699515.7,286046997.3,N
1611699535.5,286046998.9,N
1611699555.4,286047002.6,N
1611699575.2,286047000.1,N
1611699595.0,286047000.7,N
1611699595.9,286047000.7,N
1611699615.8,286047002.7,N
1611699635.6,286047002.8,N
1611699655.4,286046999.9,N
1611699675.3,286047002.6,N
1611699695.1,286047000.6,N
1611699715.9,286046998.5,N
1611699735.7,286047001.2,N
1611699755.5,286046997.7,N
1611699775.4,286046996.5,N
1611699795.2,286046998.1,N
1611699815.0,286046998.8,N
1611699816.0,286046998.8,N
1611699835.8,286046996.5,N
1611699855.6,286047000.9,N
1611699875.5,286046999.7,N
1611699895.3,286047000.8,N
1611699915.1,286046998.6,N
1611699935.9,286046997.2,N
1611699955.7,286046997.9,N
1611699975.6,286046996.9,N
1611699995.4,286046997.0,N
1611700015.2,286046997.4,N
1611700035.1,286046995.0,N
1611700036.0,286046995.0,N
1611700055.8,286046998.0,N
1611700075.6,286046997.1,N
1611700095.5,286046996.5,N
1611700115.3,286046998.3,N
1611700135.2,286047001.2,N
1611700155.9,286047000.9,N
1611700175.7,286046998.7,N
1611700195.6,286046996.9,N
1611700215.4,286046999.4,N
1611700235.2,286046996.9,N
1611700255.1,286046998.3,N
1611700256.0,286046998.3,N
1611700275.8,286046998.6,N
1611700295.7,286046999.1,N
1611700315.5,286046998.5,N
1611700335.3,286046999.2,N
1611700355.2,286046999.4,N
1611700375.0,286046998.7,N
1611700375.9,286046998.7,N
1611700395.8,286047001.1,N
1611700415.6,286046999.5,N
1611700435.4,286046998.6,N
1611700455.3,286047000.7,N
1611700475.1,286047002.4,N
1611700495.9,286047002.3,N
1611700515.7,286046999.8,N
1611700535.5,286047000.1,N
1611700555.4,286046999.9,N
1611700575.2,286047000.2,N
1611700595.0,286047002.8,N
1611700595.9,286047002.8,N
1611700615.8,286047000.2,N
1611700635.6,286047000.7,N
1611700655.5,286046999.3,N
1611700675.3,286046996.6,N
1611700695.1,286046999.6,N
1611700715.9,286046997.8,N
1611700735.7,286046996.9,N
1611700755.6,286046997.8,N
1611700775.4,286046997.5,N
1611700795.2,286046997.5,N
1611700815.1,286046997.3,N
1611700816.0,286046997.3,N
1611700835.8,286046997.3,N
1611700855.7,286046997.1,N
1611700875.5,286046999.6,N
1611700895.3,286046996.9,N
1611700915.2,286046998.9,N
1611700935.0,286046999.0,N
1611700935.9,286046999.0,N
1611700955.8,286046999.3,N
1611700975.6,286046998.7,N
1611700995.4,286046999.3,N
1611701015.3,286046999.3,N
1611701035.1,286046999.5,N
1611701055.8,286046998.5,N
1611701075.7,286047000.2,N
1611701095.5,286046999.3,N
1611701115.4,286046998.2,N
1611701135.2,286047004.0,N
1611701155.0,286047001.1,N
1611701155.9,286047001.1,N
1611701175.8,286047001.0,N
1611701195.6,286046998.1,N
1611701215.5,286046997.2,N
1611701235.3,286046995.2,Y
1611701255.1,286046997.9,P
1611701275.9,286046998.0,P
1611701295.7,286046999.1,N
1611701315.5,286047001.9,Y
1611701335.4,286047004.0,P
1611701355.2,286047005.3,N
1611701375.1,286047005.7,N
1611701376.0,286047005.7,N
1611701395.8,286047004.6,N
1611701415.6,286047004.6,N
1611701435.5,286047003.6,N
1611701455.3,286047001.7,N
1611701475.2,286047001.3,N
1611701495.0,286047003.3,N
1611701495.9,286047003.3,N
1611701515.7,286047003.3,N
1611701535.6,286047005.3,N
1611701555.4,286047005.6,N
1611701575.3,286047005.4,N
1611701595.1,286047007.2,Y
1611701615.8,286047000.2,P
1611701635.7,286047001.5,N
1611701655.5,286047002.9,N
1611701675.4,286047003.9,N
1611701695.2,286047003.6,N
1611701715.0,286047009.0,Y
1611701715.9,286047009.0,P
1611701735.8,286047003.3,N
1611701755.6,286047000.5,N
1611701775.5,286047000.2,N
1611701795.3,286046999.7,N
1611701815.1,286046999.2,N
1611701835.9,286046996.7,N
1611701855.7,286046999.4,N
1611701875.5,286046997.4,N
1611701895.4,286046996.7,N
1611701915.2,286046999.0,N
1611701935.1,286046996.8,N
1611701936.0,286046996.8,N
1611701955.8,286046994.9,N
1611701975.6,286046995.5,N
1611701995.5,286046996.0,N
